LO-74
1 39440U 13066AA 24326.27256873 .00006907 00000-0 75464-3 0 9994
2 39440 97.8292 266.9651 0067841 118.4985 242.3084 14.86491376592846
AO-73
1 39444U 13066AE 24326.32646508 .00012779 00000-0 10978-2 0 9994
2 39444 97.7406 282.9103 0043844 340.7568 19.1996 14.96826236594167
DTUSAT-2
1 40030U 14033W 24326.34370890 .00011891 00000-0 88689-3 0 9991
2 40030 98.0332 283.5896 0011878 30.4262 329.7649 15.02976668566262
EO-80
1 40032U 14033Y 24326.37449092 .00012975 00000-0 96633-3 0 9999
2 40032 98.0201 283.5400 0008671 327.4691 32.5998 15.03036018566760
XW-2C
1 40906U 15049H 24326.79187484 .00110922 00000-0 11270-2 0 9991
2 40906 97.4603 349.6329 0007340 89.2261 270.9839 15.64798263508909
LILACSAT-2
1 40908U 15049K 24326.80869502 .00015668 00000-0 51071-3 0 9998
2 40908 97.5208 337.2037 0012003 144.8564 215.3471 15.31836576507579
IO-86
1 40931U 15052B 24322.18265442 .00001592 00000-0 12634-3 0 9991
2 40931 6.0008 339.1587 0012218 92.8814 267.2712 14.78351066494134
ChubuSat-2
1 41338U 16012B 24326.42629827 .00009382 00000-0 52971-3 0 9995
2 41338 30.9998 96.4053 0010625 20.7226 339.3842 15.11791210481383
ChubuSat-3
1 41339U 16012C 24326.57946556 .00008323 00000-0 48227-3 0 9996
2 41339 31.0067 95.1380 0010740 24.1971 335.9170 15.10820648481377
Horyu-4
1 41340U 16012D 24325.51365138 .00024612 00000-0 96818-3 0 9990
2 41340 31.0026 31.4782 0009924 133.1518 226.9955 15.24424930481956
Lapan A3
1 41603U 16040E 24326.72634206 .00005521 00000-0 20818-3 0 9997
2 41603 97.1402 333.5067 0009563 260.7117 99.3042 15.27404445467250
Pratham
1 41783U 16059A 24326.46974596 .00001523 00000-0 28667-3 0 9994
2 41783 97.8305 338.4519 0030762 240.1951 119.6194 14.65670698435577
CAS-2T
1 41847U 16066G 24326.56758760 .00001845 00000-0 27200-3 0 9996
2 41847 98.4450 36.6784 0350968 63.0838 300.5758 14.42425760422178
CAS-4B
1 42759U 17034B 24326.54576750 .00037766 00000-0 94410-3 0 9998
2 42759 43.0153 50.9655 0014263 337.4230 22.5997 15.39380405411551
CAS-4A
1 42761U 17034D 24326.59535197 .00039284 00000-0 97218-3 0 9992
2 42761 43.0188 48.8625 0014751 347.0142 13.0332 15.39665670411576
D-SAT
1 42794U 17036AF 24326.35953933 .00014968 00000-0 93917-3 0 9990
2 42794 97.4948 302.9562 0101636 334.6035 25.0215 15.05131123404327
TechnoSat
1 42829U 17042E 24326.52382466 .00005906 00000-0 49029-3 0 9999
2 42829 97.3892 139.0957 0010559 266.2344 93.7673 14.99084890400726
AO-91
1 43017U 17073E 24325.86909265 .00013521 00000-0 75194-3 0 9995
2 43017 97.5505 196.1054 0196605 127.1737 234.7619 14.98732115379089
S-Net D
1 43186U 18014G 24326.18562054 .00008609 00000-0 56264-3 0 9993
2 43186 97.5762 225.4496 0009288 178.4483 181.6776 15.08015861372131
S-Net B
1 43187U 18014H 24326.58699455 .00008834 00000-0 57714-3 0 9995
2 43187 97.5764 225.8061 0010252 173.2140 186.9229 15.08009578372197
S-Net A
1 43188U 18014J 24326.18657255 .00008638 00000-0 56435-3 0 9995
2 43188 97.5775 225.5377 0010087 175.5357 184.5963 15.08018873372139
S-Net C
1 43189U 18014K 24326.19088571 .00008558 00000-0 55920-3 0 9995
2 43189 97.5792 225.5210 0011976 170.0676 190.0791 15.08001364370683
Ten-Koh
1 43677U 18084G 24326.41720380 .00005137 00000-0 43622-3 0 9996
2 43677 98.0815 125.0067 0012247 213.2899 146.7553 14.98306819330243
PO-101
1 43678U 18084H 24326.86887530 .00004121 00000-0 36653-3 0 9995
2 43678 98.0864 129.8088 0007935 222.2082 137.8528 14.96659080330494
QO-100
1 43700U 18090A 24326.51993723 .00000147 00000-0 00000-0 0 9990
2 43700 0.0097 344.7850 0002245 294.1575 355.0501 1.00273365 21930
MinXSS-2
1 43758U 18099A 24325.74879082 .00020443 00000-0 10616-2 0 9994
2 43758 97.5331 26.2068 0015144 136.2439 223.9996 15.16038639326445
AO-95
1 43770U 18099N 24326.10011893 .00014339 00000-0 86072-3 0 9994
2 43770 97.5238 20.9139 0012266 180.5538 179.5680 15.10964209326215
RANGE-B
1 43772U 18099Q 24326.15811510 .00024260 00000-0 11853-2 0 9993
2 43772 97.5034 25.2918 0005253 86.8245 273.3590 15.18229980326463
RANGE-A
1 43773U 18099R 24325.94337760 .00008095 00000-0 56430-3 0 9999
2 43773 97.4810 14.2639 0012853 153.4208 206.7681 15.05599659325994
MOVE-II
1 43780U 18099Y 24326.11836427 .00050151 00000-0 16915-2 0 9994
2 43780 97.4987 28.8426 0005146 144.6677 215.4905 15.30532574326797
SNUSat 2
1 43782U 18099AA 24326.43375444 .00011790 00000-0 74045-3 0 9993
2 43782 97.4924 19.4729 0014465 122.1487 238.1148 15.09334714326250
SnugLite
1 43784U 18099AC 24325.57355060 .00015919 00000-0 94982-3 0 9990
2 43784 97.4735 17.9385 0004909 125.4833 234.6856 15.11210859326215
ITASat 1
1 43786U 18099AE 24326.12936551 .00009991 00000-0 64542-3 0 9996
2 43786 97.4885 19.1754 0016093 171.6829 188.4669 15.08321924326199
EAGLET 1
1 43790U 18099AJ 24326.10554532 .00008484 00000-0 58723-3 0 9994
2 43790 97.5080 19.5731 0013486 151.8779 208.3179 15.05843920325861
ESEO
1 43792U 18099AL 24326.53597054 .00003581 00000-0 28353-3 0 9998
2 43792 97.4874 15.6693 0009638 111.7323 248.4929 15.01162983325790
CSIM
1 43793U 18099AM 24326.15249573 .00048489 00000-0 16633-2 0 9990
2 43793 97.5127 30.7087 0009332 123.7339 236.4791 15.29964249326643
JO-97
1 43803U 18099AX 24326.09756750 .00016384 00000-0 92156-3 0 9999
2 43803 97.4990 21.6683 0009755 119.5936 240.6268 15.13302299326378
Suomi 100
1 43804U 18099AY 24325.39486195 .00013280 00000-0 77700-3 0 9995
2 43804 97.5051 20.6804 0015133 123.4735 236.7944 15.11875696326236
ISAT
1 43879U 18111D 24326.00613630 .00022720 00000-0 11056-2 0 9997
2 43879 97.6056 231.5739 0011205 164.5092 195.6487 15.18342039323141
UWE-4
1 43880U 18111E 24326.59239651 .00019070 00000-0 97977-3 0 9991
2 43880 97.5985 231.7061 0014063 176.9848 183.1472 15.16445928321226
Sparrow
1 43881U 18111F 24325.98231492 .00023996 00000-0 11445-2 0 9996
2 43881 97.6165 233.7929 0006875 204.3460 155.7450 15.19063463323216
Prox-1
1 44339U 19036A 24326.25152501 .00018432 00000-0 27809-2 0 9996
2 44339 23.9995 290.8090 0007713 315.4121 44.5754 14.72771697288373
SONATE
1 44400U 19038Q 24326.40928879 .00045265 00000-0 87040-3 0 9991
2 44400 97.7140 328.9337 0009154 261.5265 98.4947 15.47750474298276
Taurus 1
1 44530U 19059C 24326.72735002 .00013602 00000-0 28159-2 0 9992
2 44530 98.5888 91.7145 0010474 288.0954 71.9104 14.60354873274717
Duchifat 3
1 44854U 19089C 24326.70565701 .00031795 00000-0 11768-2 0 9990
2 44854 36.9504 166.2918 0011983 338.7980 21.2273 15.26755755272193
TO-108
1 44881U 19093C 24326.73428448 .00002207 00000-0 26643-3 0 9999
2 44881 97.8150 40.4533 0014480 161.9874 198.1857 14.84700827266418
FloripaSat 1
1 44885U 19093G 24326.76094565 .00010267 00000-0 96225-3 0 9993
2 44885 97.8308 48.4402 0011988 150.6005 209.5891 14.94166860266869
RS-44
1 44909U 19096E 24326.56863731 .00000019 00000-0 27639-4 0 9998
2 44909 82.5232 0.1967 0218211 43.4912 318.3169 12.79736134229154
UPMSat 2
1 46276U 20061E 24325.78856785 .00037081 00000-0 79152-3 0 9990
2 46276 97.2761 31.0464 0000245 351.3052 8.8192 15.44782856234251
